| time (UTC) | temp F | wind direction | speed MPH | gust MPH | rain 1hr in | rain 24hr in | rain mn in | humidity % | barometer mb |
| 20260504081539 | 45 | 360 | 0.0 | 0.0 | 0.00 | 0.00 | 0.00 | 71 | 1010.3 |
| 20260504050023 | 44 | 360 | 0.0 | 0.0 | 0.00 | 0.00 | 0.00 | 59 | 1010.5 |
| 20260504044523 | 43 | 360 | 0.0 | 0.0 | 0.00 | 0.00 | 0.00 | 60 | 1010.5 |
| 20260504043018 | 43 | 360 | 0.0 | 0.0 | 0.00 | 0.00 | 0.00 | 59 | 1010.6 |
| 20260504041515 | 42 | 360 | 0.0 | 0.0 | 0.00 | 0.00 | 0.00 | 58 | 1010.6 |
| 20260504040015 | 41 | 360 | 0.0 | 0.0 | 0.00 | 0.00 | 0.00 | 59 | 1010.5 |
| 20260504034518 | 40 | 360 | 0.0 | 0.0 | 0.00 | 0.00 | 0.00 | 60 | 1010.3 |
| 20260504033010 | 41 | 360 | 0.0 | 0.0 | 0.00 | 0.00 | 0.00 | 61 | 1010.3 |
| 20260504031510 | 41 | 360 | 0.0 | 0.0 | 0.00 | 0.00 | 0.00 | 62 | 1010.3 |
| 20260504030009 | 41 | 360 | 0.0 | 0.0 | 0.00 | 0.00 | 0.00 | 60 | 1010.4 |
| 20260504024511 | 41 | 360 | 0.0 | 0.0 | 0.00 | 0.00 | 0.00 | 58 | 1010.3 |
| 20260504023009 | 41 | 360 | 0.0 | 0.0 | 0.00 | 0.00 | 0.00 | 58 | 1010.3 |
| 20260504021508 | 42 | 360 | 0.0 | 0.0 | 0.00 | 0.00 | 0.00 | 58 | 1010.2 |
| 20260504020008 | 42 | 360 | 0.0 | 0.0 | 0.00 | 0.00 | 0.00 | 57 | 1010.1 |
| 20260504014508 | 42 | 360 | 0.0 | 0.0 | 0.00 | 0.00 | 0.00 | 57 | 1010.1 |
| 20260504013009 | 42 | 360 | 0.0 | 0.0 | 0.00 | 0.00 | 0.00 | 56 | 1009.9 |
| 20260504011507 | 42 | 360 | 0.0 | 0.0 | 0.00 | 0.00 | 0.00 | 56 | 1009.7 |
| 20260504010006 | 43 | 360 | 0.0 | 0.0 | 0.00 | 0.00 | 0.00 | 55 | 1009.5 |
| 20260504004508 | 43 | 360 | 0.0 | 0.0 | 0.00 | 0.00 | 0.00 | 56 | 1009.3 |
| 20260504003005 | 44 | 360 | 0.0 | 0.0 | 0.00 | 0.00 | 0.00 | 54 | 1009.1 |
| 20260504001504 | 45 | 360 | 0.0 | 0.0 | 0.00 | 0.00 | 0.00 | 51 | 1009.0 |
| 20260504000004 | 46 | 360 | 0.0 | 0.0 | 0.00 | 0.00 | 0.00 | 49 | 1008.8 |
| 20260503234504 | 48 | 360 | 0.0 | 0.0 | 0.00 | 0.00 | 0.00 | 45 | 1008.6 |
| 20260503233004 | 48 | 360 | 0.0 | 2.0 | 0.00 | 0.00 | 0.00 | 45 | 1008.5 |
| 20260503231503 | 49 | 360 | 0.0 | 8.0 | 0.00 | 0.00 | 0.00 | 43 | 1008.4 |
| 20260503230003 | 49 | 360 | 0.0 | 0.0 | 0.00 | 0.00 | 0.00 | 47 | 1008.4 |
| 20260503224502 | 49 | 360 | 0.0 | 0.0 | 0.00 | 0.00 | 0.00 | 42 | 1008.4 |
| 20260503223002 | 50 | 209 | 0.0 | 4.0 | 0.00 | 0.00 | 0.00 | 42 | 1008.5 |
| 20260503221501 | 52 | 234 | 0.0 | 13.0 | 0.00 | 0.00 | 0.00 | 40 | 1008.4 |
| 20260503220059 | 51 | 360 | 0.0 | 9.0 | 0.00 | 0.00 | 0.00 | 41 | 1008.3 |
| 20260503214557 | 50 | 279 | 0.0 | 12.0 | 0.00 | 0.00 | 0.00 | 42 | 1008.2 |
| 20260503213057 | 51 | 360 | 1.0 | 12.0 | 0.00 | 0.00 | 0.00 | 41 | 1008.0 |
| 20260503211555 | 50 | 360 | 0.0 | 13.0 | 0.00 | 0.00 | 0.00 | 42 | 1007.9 |
| 20260503210054 | 49 | 71 | 0.0 | 1.0 | 0.00 | 0.00 | 0.00 | 46 | 1007.9 |
| 20260503204555 | 49 | 360 | 0.0 | 12.0 | 0.00 | 0.00 | 0.00 | 43 | 1007.9 |
| 20260503203056 | 48 | 69 | 0.0 | 7.0 | 0.00 | 0.00 | 0.00 | 44 | 1008.0 |
| 20260503201552 | 49 | 360 | 0.0 | 13.0 | 0.00 | 0.00 | 0.00 | 44 | 1007.9 |
| 20260503200052 | 48 | 39 | 0.0 | 6.0 | 0.00 | 0.00 | 0.00 | 46 | 1007.9 |
| 20260503194554 | 48 | 345 | 0.0 | 9.0 | 0.00 | 0.00 | 0.00 | 46 | 1008.0 |
| 20260503193051 | 48 | 349 | 0.0 | 2.0 | 0.00 | 0.00 | 0.00 | 44 | 1008.1 |
| 20260503191550 | 49 | 86 | 0.0 | 12.0 | 0.00 | 0.00 | 0.00 | 45 | 1007.9 |
| 20260503190053 | 49 | 360 | 1.0 | 15.0 | 0.00 | 0.00 | 0.00 | 43 | 1007.9 |
| 20260503184605 | 49 | 360 | 0.0 | 6.0 | 0.00 | 0.00 | 0.00 | 49 | 1007.9 |
| 20260503183052 | 49 | 191 | 1.0 | 15.0 | 0.00 | 0.00 | 0.00 | 45 | 1008.0 |
| 20260503181554 | 50 | 360 | 2.0 | 15.0 | 0.00 | 0.00 | 0.00 | 44 | 1007.8 |
| 20260503180048 | 49 | 360 | 4.0 | 16.0 | 0.00 | 0.00 | 0.00 | 45 | 1007.8 |
| 20260503174546 | 48 | 360 | 0.0 | 9.0 | 0.00 | 0.00 | 0.00 | 48 | 1007.8 |
| 20260503173046 | 48 | 16 | 2.0 | 14.0 | 0.00 | 0.00 | 0.00 | 49 | 1007.8 |
| 20260503171607 | 48 | 311 | 0.0 | 16.0 | 0.00 | 0.00 | 0.00 | 49 | 1007.8 |